TimeEDT,TemperatureF,Dew PointF,Humidity,Sea Level PressureIn,VisibilityMPH,Wind Direction,Wind SpeedMPH,Gust SpeedMPH,PrecipitationIn,Events,Conditions,WindDirDegrees,DateUTC
12:53 AM,55.0,53.1,93,30.02,9.0,West,3.5,-,N/A,,Clear,270,2012-03-16 04:53:00
1:53 AM,54.0,52.0,93,30.02,9.0,SW,4.6,-,N/A,,Clear,230,2012-03-16 05:53:00
2:53 AM,53.1,51.1,93,30.02,7.0,WSW,6.9,-,N/A,,Clear,250,2012-03-16 06:53:00
3:53 AM,55.0,53.1,93,30.02,6.0,Calm,Calm,-,N/A,,Clear,0,2012-03-16 07:53:00
4:53 AM,54.0,53.1,97,30.03,5.0,WSW,4.6,-,0.01,,Clear,240,2012-03-16 08:53:00
5:08 AM,53.6,51.8,94,30.04,1.5,WSW,4.6,-,N/A,,Clear,250,2012-03-16 09:08:00
5:13 AM,53.6,53.6,100,30.04,0.8,West,4.6,-,N/A,,Clear,260,2012-03-16 09:13:00
5:29 AM,51.8,51.8,100,30.04,0.2,SSW,3.5,-,N/A,Fog,Fog,210,2012-03-16 09:29:00
5:41 AM,53.6,51.8,94,30.05,1.2,SW,3.5,-,N/A,,Partly Cloudy,230,2012-03-16 09:41:00
5:45 AM,53.6,53.6,100,30.05,2.0,SW,3.5,-,N/A,,Partly Cloudy,220,2012-03-16 09:45:00
5:53 AM,54.0,53.1,97,30.04,1.2,SW,3.5,-,N/A,,Partly Cloudy,230,2012-03-16 09:53:00
6:25 AM,53.6,51.8,94,30.06,2.0,SW,4.6,-,N/A,,Clear,230,2012-03-16 10:25:00
6:31 AM,51.8,51.8,100,30.06,1.2,SW,4.6,-,N/A,,Clear,230,2012-03-16 10:31:00
6:44 AM,50.0,50.0,100,30.06,0.2,Calm,Calm,-,N/A,Fog,Fog,0,2012-03-16 10:44:00
6:53 AM,51.1,50.0,96,30.06,0.2,Calm,Calm,-,N/A,Fog,Fog,0,2012-03-16 10:53:00
7:37 AM,50.0,48.2,94,30.07,0.2,Calm,Calm,-,N/A,Fog,Fog,0,2012-03-16 11:37:00
7:53 AM,48.9,46.9,93,30.09,0.2,Calm,Calm,-,N/A,Fog,Fog,0,2012-03-16 11:53:00
8:37 AM,48.2,46.4,93,30.09,0.2,Calm,Calm,-,N/A,Fog,Fog,0,2012-03-16 12:37:00
8:53 AM,52.0,51.1,97,30.09,0.2,Calm,Calm,-,N/A,Fog,Fog,0,2012-03-16 12:53:00
9:09 AM,53.6,51.8,94,30.10,0.2,Calm,Calm,-,N/A,Fog,Fog,0,2012-03-16 13:09:00
9:16 AM,53.6,53.6,100,30.10,1.5,Calm,Calm,-,N/A,,Scattered Clouds,0,2012-03-16 13:16:00
9:23 AM,55.4,53.6,94,30.10,2.5,Calm,Calm,-,N/A,,Partly Cloudy,0,2012-03-16 13:23:00
9:30 AM,55.4,55.4,100,30.11,3.0,SSW,3.5,-,N/A,,Partly Cloudy,210,2012-03-16 13:30:00
9:53 AM,57.0,55.0,93,30.11,8.0,WSW,4.6,-,N/A,,Clear,240,2012-03-16 13:53:00
10:53 AM,62.1,57.0,84,30.12,10.0,SW,6.9,-,N/A,,Clear,220,2012-03-16 14:53:00
12:53 PM,66.9,59.0,76,30.12,10.0,SSE,5.8,-,N/A,,Clear,160,2012-03-16 16:53:00
1:20 PM,69.8,60.8,73,30.12,10.0,South,5.8,-,N/A,,Mostly Cloudy,170,2012-03-16 17:20:00
1:34 PM,69.8,60.8,73,30.11,10.0,SE,3.5,-,N/A,,Scattered Clouds,140,2012-03-16 17:34:00
1:53 PM,69.1,60.1,73,30.11,10.0,South,5.8,-,N/A,,Scattered Clouds,190,2012-03-16 17:53:00
2:02 PM,69.8,60.8,73,30.11,10.0,SSW,6.9,-,N/A,,Mostly Cloudy,200,2012-03-16 18:02:00
2:25 PM,69.8,60.8,73,30.10,9.0,South,9.2,-,N/A,,Scattered Clouds,190,2012-03-16 18:25:00
2:53 PM,69.1,61.0,75,30.10,8.0,SSE,8.1,-,N/A,,Partly Cloudy,160,2012-03-16 18:53:00
3:21 PM,69.8,60.8,73,30.10,8.0,SSE,6.9,-,N/A,,Mostly Cloudy,160,2012-03-16 19:21:00
3:53 PM,68.0,61.0,78,30.09,7.0,SSE,8.1,-,N/A,,Scattered Clouds,150,2012-03-16 19:53:00
4:02 PM,69.8,60.8,73,30.10,7.0,SSE,5.8,-,N/A,,Mostly Cloudy,150,2012-03-16 20:02:00
4:18 PM,69.8,60.8,73,30.10,7.0,South,8.1,-,N/A,,Scattered Clouds,170,2012-03-16 20:18:00
4:53 PM,70.0,61.0,73,30.09,8.0,South,6.9,-,N/A,,Clear,180,2012-03-16 20:53:00
5:53 PM,70.0,60.1,71,30.09,8.0,South,8.1,-,N/A,,Clear,190,2012-03-16 21:53:00
6:53 PM,69.1,60.1,73,30.10,9.0,South,5.8,-,N/A,,Clear,190,2012-03-16 22:53:00
7:53 PM,66.9,60.1,79,30.11,7.0,SE,4.6,-,N/A,,Clear,140,2012-03-16 23:53:00
8:53 PM,64.0,59.0,84,30.11,8.0,SSE,6.9,-,N/A,,Clear,160,2012-03-17 00:53:00
9:53 PM,61.0,57.9,90,30.12,6.0,Calm,Calm,-,N/A,,Clear,0,2012-03-17 01:53:00
10:53 PM,59.0,55.9,90,30.12,4.0,Calm,Calm,-,N/A,,Clear,0,2012-03-17 02:53:00
11:27 PM,55.4,53.6,94,30.13,1.2,Calm,Calm,-,N/A,,Clear,0,2012-03-17 03:27:00
11:31 PM,55.4,53.6,94,30.13,0.5,Calm,Calm,-,N/A,Fog,Fog,0,2012-03-17 03:31:00
11:51 PM,55.4,53.6,94,30.13,1.2,Calm,Calm,-,N/A,,Partly Cloudy,0,2012-03-17 03:51:00
11:53 PM,55.0,54.0,96,30.13,1.5,Calm,Calm,-,N/A,,Partly Cloudy,0,2012-03-17 03:53:00
11:55 PM,55.4,53.6,94,30.13,1.0,Calm,Calm,-,N/A,,Mist,0,2012-03-17 03:55:00
11:59 PM,55.4,53.6,94,30.13,0.2,Calm,Calm,-,N/A,Fog,Fog,0,2012-03-17 03:59:00